Total_Precipitation_Accumulation
0.00 0.00 0.00 0.00 0.00 0.00 0.00 0.00 0.00 0.00 0.00 0.00 0.00 0.00 0.01 0.03 0.09 0.19 0.41 0.61 0.80 0.90 0.91 0.88 0.81 0.85 0.79 0.74 0.80 0.83 0.99 1.25 1.47 1.48 1.49 1.51 1.37 1.22 0.98 0.82 0.81 0.91 0.97 1.13
0.00 0.00 0.00 0.00 0.00 0.00 0.00 0.00 0.00 0.00 0.00 0.00 0.00 0.00 0.02 0.06 0.08 0.08 0.19 0.34 0.53 0.86 1.04 1.08 1.11 1.04 0.88 0.92 1.10 1.34 1.69 1.97 1.85 1.94 2.12 2.04 1.89 1.44 1.17 1.04 1.02 1.07 1.21 1.33
0.00 0.00 0.00 0.00 0.00 0.00 0.00 0.00 0.00 0.00 0.00 0.00 0.00 0.00 0.02 0.09 0.15 0.19 0.20 0.24 0.30 0.45 0.59 0.74 0.89 0.98 1.15 1.36 1.58 1.83 2.10 2.20 2.13 2.24 2.28 2.00 1.87 1.52 1.39 1.32 1.22 1.23 1.41 1.51
0.00 0.00 0.00 0.00 0.00 0.00 0.00 0.00 0.00 0.00 0.00 0.00 0.00 0.00 0.01 0.04 0.09 0.17 0.26 0.32 0.34 0.39 0.46 0.62 0.83 1.11 1.46 1.76 2.10 2.37 2.40 2.38 2.31 2.36 2.30 2.16 1.98 1.73 1.67 1.71 1.51 1.36 1.36 1.42
0.01 0.00 0.00 0.00 0.00 0.00 0.00 0.00 0.00 0.00 0.00 0.00 0.00 0.00 0.01 0.02 0.04 0.09 0.19 0.31 0.40 0.49 0.54 0.69 0.91 1.18 1.39 1.69 1.99 2.23 2.41 2.44 2.33 2.27 2.19 2.13 1.96 1.78 1.69 1.62 1.49 1.42 1.46 1.38
0.03 0.02 0.01 0.01 0.00 0.00 0.00 0.00 0.00 0.00 0.00 0.00 0.00 0.01 0.02 0.03 0.04 0.08 0.21 0.32 0.44 0.62 0.72 0.88 1.11 1.28 1.35 1.51 1.75 1.93 2.06 2.07 2.02 1.95 1.92 1.92 1.88 1.86 1.73 1.57 1.57 1.60 1.54 1.38
0.05 0.03 0.04 0.03 0.02 0.01 0.00 0.01 0.04 0.02 0.00 0.00 0.01 0.01 0.07 0.10 0.12 0.16 0.24 0.40 0.60 0.82 0.96 1.09 1.29 1.42 1.47 1.44 1.50 1.59 1.63 1.62 1.53 1.47 1.41 1.42 1.45 1.49 1.44 1.44 1.50 1.54 1.52 1.43
0.12 0.05 0.07 0.09 0.07 0.04 0.04 0.06 0.16 0.13 0.03 0.01 0.01 0.06 0.17 0.18 0.20 0.24 0.30 0.41 0.61 0.78 0.90 1.08 1.18 1.12 1.06 1.06 1.12 1.17 1.16 1.13 1.06 1.07 1.09 1.12 1.22 1.28 1.28 1.34 1.38 1.45 1.46 1.44
0.06 0.04 0.06 0.08 0.09 0.08 0.12 0.16 0.14 0.23 0.17 0.14 0.05 0.11 0.20 0.22 0.33 0.41 0.50 0.56 0.60 0.65 0.66 0.70 0.72 0.77 0.84 0.88 0.88 0.88 0.90 0.89 0.83 0.82 0.89 0.94 1.00 1.08 1.10 1.17 1.21 1.24 1.23 1.19
0.02 0.02 0.03 0.03 0.05 0.07 0.13 0.22 0.33 0.47 0.45 0.32 0.14 0.15 0.32 0.45 0.49 0.55 0.71 0.93 0.82 0.61 0.54 0.54 0.55 0.60 0.64 0.67 0.71 0.75 0.83 0.90 0.87 0.81 0.81 0.81 0.84 0.88 0.97 1.03 1.03 1.05 1.09 1.07
0.01 0.03 0.04 0.05 0.07 0.11 0.20 0.28 0.38 0.48 0.50 0.45 0.36 0.33 0.30 0.57 0.65 0.63 0.68 0.75 0.67 0.47 0.36 0.32 0.32 0.37 0.45 0.57 0.65 0.67 0.77 0.85 0.80 0.71 0.70 0.74 0.76 0.78 0.81 0.85 0.85 0.87 0.93 0.97
0.02 0.03 0.03 0.05 0.07 0.07 0.15 0.28 0.39 0.48 0.48 0.47 0.45 0.44 0.28 0.42 0.48 0.50 0.56 0.48 0.39 0.29 0.22 0.20 0.20 0.24 0.32 0.41 0.47 0.54 0.63 0.73 0.75 0.71 0.71 0.74 0.76 0.74 0.72 0.73 0.70 0.70 0.72 0.73
0.00 0.01 0.02 0.06 0.12 0.11 0.12 0.15 0.22 0.31 0.37 0.38 0.42 0.46 0.30 0.30 0.38 0.40 0.37 0.32 0.24 0.20 0.16 0.15 0.17 0.20 0.24 0.28 0.36 0.42 0.48 0.56 0.64 0.65 0.70 0.75 0.74 0.70 0.71 0.73 0.72 0.70 0.66 0.64
0.00 0.00 0.02 0.06 0.08 0.07 0.09 0.13 0.17 0.25 0.33 0.29 0.26 0.30 0.34 0.33 0.34 0.32 0.26 0.22 0.20 0.17 0.15 0.14 0.14 0.16 0.16 0.19 0.25 0.30 0.34 0.40 0.48 0.56 0.70 0.82 0.86 0.85 0.84 0.78 0.77 0.74 0.68 0.67
0.00 0.01 0.02 0.02 0.02 0.02 0.04 0.07 0.12 0.17 0.21 0.26 0.24 0.27 0.34 0.34 0.30 0.26 0.23 0.21 0.22 0.20 0.15 0.12 0.11 0.10 0.11 0.13 0.17 0.25 0.32 0.36 0.42 0.56 0.77 0.86 0.83 0.76 0.74 0.71 0.76 0.72 0.63 0.62
0.00 0.01 0.03 0.05 0.06 0.09 0.12 0.13 0.11 0.11 0.12 0.15 0.19 0.27 0.27 0.27 0.26 0.26 0.24 0.21 0.19 0.16 0.12 0.11 0.10 0.08 0.07 0.07 0.09 0.16 0.25 0.32 0.40 0.50 0.61 0.64 0.67 0.68 0.63 0.58 0.54 0.52 0.52 0.50
0.01 0.01 0.03 0.05 0.12 0.16 0.18 0.15 0.22 0.25 0.20 0.21 0.32 0.34 0.26 0.23 0.19 0.16 0.14 0.13 0.13 0.11 0.09 0.08 0.08 0.07 0.06 0.06 0.08 0.13 0.20 0.25 0.35 0.42 0.45 0.52 0.61 0.62 0.54 0.45 0.46 0.47 0.44 0.42
0.01 0.01 0.03 0.06 0.16 0.23 0.16 0.04 0.06 0.11 0.14 0.15 0.20 0.20 0.17 0.15 0.11 0.09 0.07 0.06 0.06 0.05 0.05 0.05 0.05 0.05 0.05 0.06 0.09 0.13 0.18 0.23 0.32 0.41 0.47 0.50 0.59 0.59 0.52 0.47 0.44 0.42 0.38 0.37
0.00 0.00 0.02 0.05 0.11 0.12 0.08 0.04 0.04 0.07 0.08 0.04 0.07 0.08 0.08 0.06 0.07 0.10 0.06 0.03 0.03 0.03 0.04 0.04 0.03 0.05 0.07 0.08 0.09 0.13 0.21 0.24 0.31 0.40 0.49 0.57 0.61 0.57 0.51 0.47 0.41 0.37 0.36 0.32
0.00 0.00 0.01 0.03 0.09 0.12 0.06 0.04 0.05 0.08 0.20 0.11 0.08 0.07 0.06 0.06 0.13 0.16 0.05 0.01 0.01 0.03 0.07 0.08 0.06 0.09 0.14 0.13 0.12 0.17 0.24 0.30 0.40 0.47 0.54 0.59 0.59 0.57 0.54 0.51 0.46 0.40 0.38 0.35
0.00 0.00 0.01 0.02 0.07 0.07 0.03 0.04 0.06 0.16 0.24 0.06 0.02 0.02 0.02 0.06 0.11 0.08 0.02 0.01 0.01 0.03 0.08 0.12 0.15 0.22 0.22 0.18 0.19 0.24 0.28 0.35 0.42 0.49 0.56 0.62 0.66 0.59 0.55 0.53 0.51 0.47 0.45 0.44
0.00 0.01 0.01 0.03 0.09 0.10 0.02 0.02 0.04 0.06 0.03 0.02 0.02 0.02 0.02 0.02 0.02 0.03 0.02 0.02 0.02 0.04 0.07 0.14 0.24 0.28 0.25 0.25 0.32 0.38 0.41 0.41 0.44 0.52 0.59 0.68 0.71 0.58 0.53 0.57 0.57 0.55 0.54 0.55
0.00 0.01 0.01 0.03 0.05 0.02 0.01 0.01 0.02 0.02 0.02 0.02 0.02 0.01 0.02 0.02 0.02 0.03 0.02 0.03 0.06 0.09 0.10 0.13 0.20 0.25 0.26 0.32 0.44 0.57 0.59 0.52 0.52 0.58 0.66 0.67 0.68 0.70 0.70 0.64 0.62 0.60 0.58 0.60
0.00 0.00 0.01 0.03 0.02 0.01 0.01 0.01 0.01 0.01 0.01 0.01 0.01 0.01 0.01 0.02 0.02 0.02 0.02 0.03 0.06 0.09 0.10 0.11 0.15 0.22 0.29 0.38 0.51 0.61 0.64 0.61 0.61 0.63 0.68 0.71 0.73 0.75 0.76 0.75 0.73 0.69 0.65 0.66
0.00 0.00 0.02 0.05 0.03 0.02 0.01 0.01 0.01 0.00 0.01 0.01 0.01 0.01 0.01 0.02 0.03 0.03 0.03 0.04 0.05 0.06 0.07 0.09 0.14 0.22 0.29 0.37 0.46 0.54 0.56 0.63 0.68 0.70 0.74 0.77 0.77 0.79 0.79 0.78 0.77 0.75 0.70 0.65
0.01 0.01 0.03 0.04 0.03 0.03 0.03 0.01 0.00 0.00 0.01 0.01 0.01 0.01 0.02 0.02 0.03 0.04 0.04 0.04 0.04 0.05 0.06 0.09 0.12 0.17 0.24 0.31 0.41 0.48 0.57 0.65 0.74 0.77 0.73 0.71 0.70 0.71 0.73 0.72 0.61 0.54 0.54 0.51